Date,TemperatureHighF,TemperatureAvgF,TemperatureLowF,DewpointHighF,DewpointAvgF,DewpointLowF,HumidityHigh,HumidityAvg,HumidityLow,PressureMaxIn,PressureMinIn,WindSpeedMaxMPH,WindSpeedAvgMPH,GustSpeedMaxMPH,PrecipitationSumIn
2013-1-1,64.4,45.3,35.1,41.0,32.3,27.3,89,64,28,30.27,30.07,2,0,3,0.00
2013-1-2,70.5,48.1,36.5,32.7,24.1,8.6,64,45,10,30.17,30.02,2,0,4,0.00
2013-1-3,74.5,49.4,38.1,36.6,26.2,10.5,63,46,10,30.22,30.05,2,0,3,0.00
2013-1-4,72.5,49.0,37.2,34.6,23.4,5.0,67,44,10,30.28,30.12,3,0,4,0.00
2013-1-5,68.7,48.9,37.8,35.7,27.1,9.4,68,48,10,30.31,30.15,2,0,4,0.00
2013-1-6,56.5,45.1,38.5,48.1,41.4,35.7,99,88,63,30.20,30.03,4,0,7,51.50
2013-1-7,69.3,48.5,36.3,42.0,36.9,32.0,99,69,28,30.14,29.98,2,0,4,0.01
2013-1-8,82.0,56.6,41.2,40.4,31.6,14.9,68,45,10,30.12,29.98,2,0,3,0.00
2013-1-9,73.0,54.6,45.9,46.9,40.6,36.5,95,62,31,30.12,29.98,3,0,4,0.00
2013-1-10,56.5,47.5,38.7,46.1,28.0,11.9,96,52,18,30.12,29.93,6,2,12,0.02
2013-1-11,56.3,41.3,29.8,31.6,20.8,8.2,75,48,16,30.22,30.06,4,1,11,0.01
2013-1-12,59.4,40.9,31.5,29.2,22.0,10.1,72,52,15,30.19,30.05,3,0,6,0.00
2013-1-13,58.3,40.8,30.0,29.2,21.7,6.7,72,51,15,30.20,30.03,4,0,7,0.00
2013-1-14,57.9,39.0,26.6,24.7,10.8,-1.2,66,36,10,30.40,30.15,2,0,4,0.00
2013-1-15,66.9,44.3,30.2,28.3,19.0,4.2,63,43,10,30.46,30.30,2,0,4,0.00
2013-1-16,76.6,51.3,36.5,34.5,25.0,9.8,64,43,10,30.39,30.14,2,0,4,51.54
2013-1-17,83.3,56.0,41.7,33.9,20.2,8.3,51,30,10,30.19,30.00,2,0,4,0.00
2013-1-18,82.4,57.3,43.9,32.2,17.4,7.1,42,24,10,30.17,30.00,2,0,4,0.00
2013-1-19,83.8,57.2,43.0,27.7,14.2,2.4,41,19,10,30.18,30.02,3,0,4,0.00
2013-1-20,84.7,57.8,43.5,28.6,11.2,1.0,40,17,10,30.17,29.96,2,0,4,0.00
2013-1-21,87.3,59.9,45.9,28.7,12.5,0.5,41,16,10,30.11,29.97,2,0,4,0.00
2013-1-22,83.5,59.0,45.7,27.5,12.7,-0.7,36,16,11,30.10,29.97,4,0,6,0.00
2013-1-23,72.1,58.1,51.6,49.1,29.2,10.3,91,36,18,30.12,29.97,3,0,4,0.06
2013-1-24,59.5,55.1,51.6,59.3,54.5,49.1,99,98,91,30.17,30.08,2,0,3,1.18
2013-1-25,59.7,56.1,54.0,59.4,55.5,53.1,99,98,97,30.14,29.96,1,0,2,0.26
2013-1-26,73.4,57.7,50.2,62.5,54.0,49.6,99,89,58,29.99,29.84,2,0,4,53.05
2013-1-27,66.4,52.4,41.4,51.3,35.3,16.6,99,60,17,30.06,29.90,6,1,12,53.05
2013-1-28,62.2,47.5,35.8,34.6,25.5,17.6,76,46,19,30.21,30.04,10,1,17,0.00
2013-1-29,64.9,45.9,36.5,39.4,34.1,29.7,86,66,29,30.25,30.11,3,0,4,0.00
2013-1-30,77.0,51.3,37.4,45.1,37.7,33.9,95,66,22,30.34,30.18,4,0,5,0.00
2013-1-31,81.9,57.8,43.3,48.4,38.9,32.3,81,55,17,30.28,30.01,2,0,4,53.05
2013-2-1,79.9,59.8,48.0,48.3,41.2,32.1,73,54,18,30.19,30.07,3,0,4,53.05
2013-2-2,74.5,59.7,52.2,51.7,45.1,39.5,87,60,31,30.20,30.10,2,0,3,0.01
2013-2-3,79.5,58.9,47.7,50.1,43.1,35.9,82,59,27,30.16,29.98,4,0,5,0.00
2013-2-4,77.5,56.6,44.4,49.0,41.0,34.4,91,60,22,30.08,29.94,2,0,4,0.00
2013-2-5,66.9,51.4,41.2,52.5,47.1,40.9,99,87,57,30.09,29.96,3,0,5,0.00
2013-2-6,68.9,52.4,41.5,50.9,46.1,41.3,99,82,49,30.13,29.97,3,0,4,0.00
2013-2-7,65.3,47.7,36.5,48.5,41.8,35.7,99,82,53,30.16,29.99,3,0,5,0.00
2013-2-8,56.1,41.8,33.8,42.1,37.3,32.9,99,86,52,30.00,29.84,4,0,7,0.03
2013-2-9,61.5,44.0,32.7,39.1,33.1,28.9,95,70,30,30.12,29.94,4,0,5,0.01
2013-2-10,62.6,43.9,32.5,40.8,35.7,29.5,95,75,40,30.12,29.99,4,0,5,0.00
2013-2-11,66.6,45.9,33.3,41.6,33.3,18.7,99,68,17,30.28,30.07,4,0,5,0.00
2013-2-12,68.2,48.0,35.6,35.7,30.1,11.7,79,55,12,30.35,30.22,4,0,5,0.00
2013-2-13,76.5,52.1,38.3,41.9,31.3,13.0,82,53,10,30.29,30.10,3,0,4,0.00
2013-2-14,81.0,56.8,42.8,40.9,32.7,19.1,67,46,10,30.19,30.01,3,1,4,0.00
2013-2-15,85.1,62.5,47.5,37.1,26.4,12.0,55,29,11,30.20,30.06,5,1,13,0.00
2013-2-16,85.1,61.0,46.6,33.6,17.1,6.5,42,20,10,30.18,29.98,3,0,6,0.00
2013-2-17,77.0,55.8,43.9,47.9,30.7,11.5,95,46,10,30.03,29.85,4,0,5,0.00
2013-2-18,67.1,51.5,39.4,48.1,44.5,39.0,99,80,46,30.06,29.92,3,0,5,0.00
2013-2-19,60.1,48.3,35.1,46.4,43.3,34.0,99,84,53,29.97,29.71,3,0,6,0.09
2013-2-20,66.6,47.8,33.4,33.9,23.9,6.8,96,46,10,30.02,29.72,8,2,17,0.01
2013-2-21,65.7,47.3,34.0,39.2,30.5,22.3,73,53,31,30.13,29.94,4,1,8,0.00
2013-2-22,70.0,49.6,36.0,33.9,28.2,13.5,74,49,12,30.20,30.08,3,0,4,0.00
2013-2-23,71.8,52.4,37.0,43.6,30.0,14.0,74,46,17,30.18,29.86,7,1,11,0.00
2013-2-24,71.6,52.7,41.2,29.8,20.4,5.4,51,32,10,30.25,30.02,6,1,11,0.00
2013-2-25,72.0,51.5,38.1,36.6,22.5,8.0,71,39,10,30.26,30.04,4,1,6,0.00
2013-2-26,79.2,55.4,38.8,31.6,18.3,7.7,60,29,10,30.16,29.93,4,1,6,0.00
2013-2-27,79.2,56.7,42.4,22.2,14.0,4.6,38,20,11,30.32,30.14,3,0,6,0.00
2013-2-28,81.7,60.3,43.9,27.8,16.9,7.1,40,21,10,30.34,30.20,3,1,4,0.00
2013-3-1,90.3,64.9,48.9,90.0,32.4,8.5,99,38,10,30.34,30.10,4,0,6,0.00
2013-3-2,88.2,66.3,52.5,39.7,21.7,9.4,46,20,10,30.22,30.04,3,0,8,0.00
2013-3-3,77.0,60.0,45.1,46.8,39.3,25.9,97,51,22,30.11,29.91,3,0,5,53.20
2013-3-4,75.0,54.1,40.8,53.8,45.5,40.6,99,78,35,30.11,29.96,4,0,6,0.00
2013-3-5,66.6,51.5,41.5,51.9,46.2,41.3,99,84,55,30.12,29.99,3,0,4,0.00
2013-3-6,57.0,50.1,43.2,50.4,46.6,42.4,99,88,72,30.14,30.00,2,0,3,0.02
2013-3-7,63.9,50.6,44.4,50.3,44.3,36.2,99,82,41,30.01,29.84,3,0,4,0.52
2013-3-8,58.5,47.0,38.1,50.6,43.1,37.9,99,87,62,30.02,29.78,3,0,5,0.68
2013-3-9,70.7,51.6,36.3,46.0,36.6,28.7,99,63,26,30.23,30.03,7,1,11,0.00
2013-3-10,79.0,57.9,42.1,40.8,30.4,13.3,72,44,10,30.29,30.12,3,1,4,0.00
2013-3-11,81.7,60.4,45.1,41.3,34.4,17.6,66,45,10,30.20,29.99,3,0,4,0.00
2013-3-12,87.3,64.1,47.8,47.2,38.3,26.5,69,44,12,30.09,29.94,4,0,5,0.00
2013-3-13,92.8,69.2,52.9,44.8,33.7,19.0,54,33,10,30.10,29.95,3,0,4,0.00
2013-3-14,94.1,70.4,54.0,46.1,37.1,24.3,55,35,10,30.08,29.94,4,1,4,0.00
2013-3-15,86.4,65.0,50.5,52.2,44.8,40.0,83,52,23,30.02,29.86,3,0,5,0.00
2013-3-16,78.3,57.9,43.0,53.8,48.2,42.1,99,73,38,29.97,29.82,3,1,5,0.00
2013-3-17,81.1,58.5,43.5,53.2,47.6,42.5,98,73,26,29.99,29.85,3,1,5,0.00
2013-3-18,69.6,54.4,46.9,53.0,49.4,46.7,99,85,54,30.08,29.97,3,0,5,0.00
2013-3-19,78.1,58.9,44.4,55.9,49.6,40.8,99,76,27,30.12,29.98,4,0,5,0.00
2013-3-20,77.9,61.1,49.5,56.0,51.1,48.2,99,73,41,30.08,29.93,3,0,4,0.00
2013-3-21,81.1,63.9,49.5,50.4,39.6,5.4,91,50,10,29.96,29.73,5,1,9,0.00
2013-3-22,82.4,65.3,50.7,46.7,19.0,-0.3,41,19,10,29.91,29.73,8,2,14,0.00
2013-3-23,80.4,60.0,42.1,43.5,23.3,-0.5,67,29,10,30.00,29.88,4,1,5,0.00
2013-3-24,84.6,60.6,42.1,41.4,28.6,10.9,81,38,10,30.02,29.84,4,1,6,0.00
2013-3-25,80.8,61.0,45.0,45.3,35.9,30.1,62,42,19,29.97,29.84,3,0,4,0.00
2013-3-26,76.5,58.6,45.0,50.2,43.6,37.4,93,61,31,29.96,29.84,3,1,5,0.00
2013-3-27,73.0,56.1,44.1,54.1,48.2,43.5,99,78,43,30.05,29.92,4,1,7,0.00
2013-3-28,79.0,57.6,45.0,56.3,49.2,44.2,99,78,40,30.07,29.97,4,1,5,0.00
2013-3-29,84.6,62.1,45.7,54.9,49.5,43.7,98,69,29,30.11,29.96,2,1,5,0.00
2013-3-30,81.3,61.4,49.6,54.9,48.1,30.0,99,69,16,30.11,29.99,4,1,7,0.00
2013-3-31,68.7,56.2,47.7,59.4,52.8,45.9,98,89,61,30.11,30.03,2,0,4,0.01
2013-4-1,68.9,54.9,45.3,58.2,50.6,44.5,99,87,56,30.16,30.06,4,0,5,0.00
2013-4-2,75.2,52.0,43.9,58.7,48.2,43.4,99,89,41,30.11,29.98,2,0,4,54.43
2013-4-3,85.6,61.0,44.6,57.7,48.7,43.8,99,70,29,30.08,29.92,3,0,4,0.00
2013-4-4,80.4,60.5,50.4,56.6,52.6,46.7,99,79,42,30.11,29.93,3,1,6,54.43
2013-4-5,77.9,60.6,51.4,57.6,53.2,51.2,99,80,43,30.10,29.93,3,0,4,12.09
2013-4-6,83.5,63.6,48.0,57.5,46.7,22.3,99,63,11,30.09,29.86,5,1,13,54.43
2013-4-7,72.3,63.9,52.9,49.2,44.0,30.3,69,50,24,29.94,29.74,3,1,6,0.00
2013-4-8,71.1,60.1,46.2,46.7,31.8,15.6,96,41,13,29.80,29.64,7,1,11,0.00
2013-4-9,80.4,64.8,55.4,27.3,20.1,8.0,32,21,10,29.99,29.79,5,1,11,0.00
2013-4-10,66.6,54.1,48.2,33.8,28.6,25.6,44,38,22,30.12,30.08,0,0,0,0.00
2013-4-12,83.1,66.9,50.9,53.4,50.9,48.5,92,60,35,29.86,29.72,3,1,5,0.00
2013-4-13,70.7,56.5,48.6,54.9,51.0,47.2,99,83,54,29.91,29.80,2,0,4,0.00
2013-4-14,57.6,54.8,52.0,56.7,52.5,50.9,99,92,85,29.86,29.80,2,0,3,0.01
2013-4-15,63.7,55.4,46.9,53.5,49.2,44.1,95,81,63,29.88,29.80,2,0,4,0.00
2013-4-16,72.9,56.3,38.5,44.5,23.2,2.9,96,41,10,30.01,29.85,8,1,13,0.00
2013-4-17,76.6,61.0,44.8,20.9,12.3,3.1,38,16,10,30.15,29.99,4,1,9,0.00
2013-4-18,82.9,61.5,44.2,30.5,16.8,7.1,42,20,10,30.22,30.10,5,1,8,0.00
2013-4-19,90.3,68.0,48.6,90.0,39.7,9.7,99,45,10,30.19,29.92,4,1,7,0.00
2013-4-20,96.4,73.4,55.2,43.3,31.4,18.7,51,25,10,30.00,29.80,5,1,8,0.00
2013-4-21,92.1,70.3,50.5,45.1,35.1,25.7,71,34,10,30.00,29.84,4,0,5,0.00
2013-4-22,81.0,60.7,44.8,53.9,48.3,42.6,99,69,26,30.01,29.82,4,1,5,0.00
2013-4-23,81.7,62.1,50.7,53.6,50.8,48.1,93,70,36,29.95,29.82,4,0,5,0.00
2013-4-24,63.9,55.8,51.3,55.6,52.3,49.3,96,88,68,29.98,29.89,2,0,4,0.00
2013-4-25,78.3,61.2,48.4,55.7,47.7,43.0,99,67,30,30.13,29.95,4,1,7,0.00
2013-4-26,84.7,63.4,45.1,56.6,48.3,42.7,98,64,29,30.15,30.03,4,0,6,0.00
2013-4-27,95.5,69.8,49.5,56.7,48.9,38.0,94,57,14,30.14,29.92,3,1,4,0.00
2013-4-28,88.2,65.4,46.8,57.9,51.6,45.7,99,68,30,30.00,29.79,3,1,4,0.00
2013-4-29,84.2,63.2,51.1,58.3,53.2,49.0,99,75,38,29.89,29.73,3,0,5,0.00
2013-4-30,65.3,57.7,49.8,55.6,52.8,48.4,98,85,66,29.90,29.80,2,0,4,0.00
2013-5-1,84.4,65.9,49.8,55.7,52.6,45.6,99,67,35,30.09,29.89,3,1,5,0.00
2013-5-2,101.3,72.2,46.6,99.9,60.1,4.6,99,79,10,30.12,29.95,4,1,9,0.00
2013-5-3,102.9,77.2,55.4,99.9,47.6,5.3,99,51,10,30.05,29.73,4,1,8,0.00
2013-5-4,81.9,67.4,52.5,53.7,43.6,19.1,87,46,18,29.82,29.66,4,1,6,0.00
2013-5-5,77.0,59.4,54.7,54.0,49.5,47.6,87,71,45,29.95,29.80,4,0,7,0.00
2013-5-6,63.7,58.7,54.1,57.2,50.9,49.1,93,76,67,30.01,29.86,2,0,2,54.46
2013-5-7,76.5,61.0,51.4,57.2,50.6,46.1,98,72,40,30.06,29.93,4,0,8,0.00
2013-5-8,77.5,60.2,46.6,60.2,48.8,45.2,99,71,33,30.10,30.02,4,1,6,0.00
2013-5-9,81.3,63.5,46.9,59.0,50.8,46.7,99,68,34,30.10,29.96,4,1,6,0.00
2013-5-10,93.2,69.7,50.7,61.3,54.0,49.9,99,64,28,30.08,29.93,4,0,6,0.01
2013-5-11,102.0,76.0,52.5,64.9,52.7,36.1,99,55,11,30.06,29.90,3,0,5,0.00
2013-5-12,106.3,81.3,57.7,99.9,62.0,32.3,99,60,10,30.04,29.85,4,1,7,0.00
2013-5-13,107.2,85.3,67.6,99.9,58.0,20.0,99,51,10,29.93,29.80,4,1,8,0.01
2013-5-14,92.5,73.1,52.0,55.1,45.5,31.6,89,44,18,29.96,29.81,4,1,5,0.00
2013-5-15,82.6,64.6,50.0,56.3,51.4,48.5,98,67,38,30.02,29.89,4,1,7,0.00
2013-5-16,79.5,62.4,48.9,58.8,52.0,48.3,99,72,42,29.98,29.85,6,0,8,0.00
2013-5-17,124.2,71.1,50.2,95.8,57.5,49.0,99,67,42,29.98,29.87,4,1,4,54.48
2013-5-18,86.0,67.4,49.1,57.2,50.1,47.1,96,60,28,30.01,29.90,3,1,5,0.00
2013-5-19,93.0,70.5,50.0,53.9,45.3,28.2,88,46,17,30.02,29.77,4,1,5,0.00
2013-5-20,99.3,73.9,50.2,99.0,51.1,31.8,99,55,10,29.95,29.77,3,1,8,0.03
2013-5-21,91.0,71.8,53.4,58.6,53.4,39.8,93,58,28,29.92,29.76,4,1,6,0.00
2013-5-22,83.1,70.1,51.8,58.0,51.4,45.9,84,54,37,29.83,29.69,4,1,7,54.51
2013-5-23,79.0,62.8,45.9,55.1,46.9,41.2,94,60,35,29.92,29.82,4,1,6,0.00
2013-5-24,80.6,62.9,46.2,51.8,45.9,40.7,88,58,27,29.97,29.89,4,1,8,0.00
2013-5-25,80.4,62.3,46.4,57.1,48.5,44.5,97,65,34,29.99,29.92,13,1,13,54.51
2013-5-26,81.9,64.1,46.9,57.5,49.2,45.9,99,64,33,30.02,29.94,4,1,8,0.00
2013-5-27,90.7,69.4,48.7,57.5,49.7,44.0,96,56,22,30.00,29.77,3,1,5,0.00
2013-5-28,95.4,75.1,54.1,53.9,44.6,23.6,82,41,10,29.84,29.64,7,1,11,0.00
2013-5-29,97.7,78.0,56.7,53.5,44.3,19.3,71,35,10,29.78,29.59,4,1,8,0.00
2013-5-30,92.3,74.0,54.3,58.7,49.1,36.9,89,46,22,29.86,29.70,8,1,11,0.00
2013-5-31,92.1,71.0,52.0,59.3,53.4,48.7,94,59,30,29.90,29.73,3,1,5,0.00
2013-6-1,108.3,76.7,52.9,99.9,56.4,41.9,99,60,13,29.85,29.62,4,0,8,0.00
2013-6-2,86.7,67.9,53.1,61.7,57.1,52.5,99,72,41,29.80,29.71,4,1,6,0.00
2013-6-3,83.8,67.6,55.2,59.1,56.3,52.6,94,70,41,29.89,29.77,4,1,8,0.00
2013-6-4,83.5,66.6,53.1,58.1,55.1,50.1,95,70,39,29.97,29.84,4,1,8,0.00
2013-6-5,85.8,65.2,50.2,57.7,53.5,49.6,99,71,36,29.99,29.85,3,1,6,54.51
2013-6-6,85.8,65.2,49.5,59.2,54.1,49.2,99,72,37,29.95,29.80,4,1,5,0.00
2013-6-7,90.0,65.6,54.1,59.8,55.6,51.9,96,75,33,29.90,29.70,3,0,4,0.00
2013-6-8,84.4,66.6,56.5,60.9,56.8,54.2,96,74,42,29.89,29.77,4,1,5,0.00
2013-6-9,85.8,67.3,56.8,60.6,56.8,53.0,92,73,42,29.90,29.82,5,1,11,0.00
2013-6-10,84.9,67.6,57.0,56.0,54.4,52.8,90,67,35,29.93,29.85,4,1,9,0.00
2013-6-11,97.7,73.8,52.0,66.4,54.7,49.3,99,60,21,29.94,29.79,4,1,5,0.00
2013-6-12,87.1,68.1,59.2,61.6,56.8,54.7,88,70,38,29.98,29.88,3,1,5,0.00
2013-6-13,87.1,69.6,55.9,60.6,57.0,52.7,89,68,40,30.00,29.85,3,1,5,0.00
2013-6-14,86.9,68.5,50.5,65.0,55.8,50.3,99,69,37,29.92,29.77,3,1,4,0.00
2013-6-15,84.0,67.8,57.7,58.9,55.9,54.0,91,69,42,29.95,29.86,3,1,6,0.00
2013-6-16,89.8,67.0,54.1,60.1,54.6,52.5,97,70,31,30.03,29.87,4,1,6,0.02
2013-6-17,93.7,71.1,52.2,60.0,54.6,49.8,99,63,23,29.97,29.79,3,1,5,0.01
2013-6-18,91.2,71.7,54.0,61.9,54.5,51.8,97,60,29,29.89,29.75,3,1,4,0.00
2013-6-19,96.4,75.3,52.7,57.9,44.1,25.8,93,44,10,29.84,29.68,4,1,7,0.02
2013-6-20,93.9,75.5,56.3,48.7,32.8,5.4,66,25,10,29.83,29.71,4,1,7,0.01
2013-6-21,91.6,71.7,53.8,55.8,48.4,45.0,81,48,22,29.87,29.76,4,1,6,0.00
2013-6-22,89.2,71.1,53.2,57.8,52.7,46.2,85,56,32,29.89,29.75,4,1,8,0.02
2013-6-23,78.8,64.0,54.0,59.0,55.6,52.5,98,76,48,29.87,29.75,3,0,4,0.00
2013-6-24,73.2,62.8,52.3,60.7,55.5,51.8,99,79,58,29.94,29.81,2,0,5,0.00
2013-6-25,87.1,70.2,53.1,66.2,57.6,52.5,99,69,39,29.97,29.84,4,1,5,0.00
2013-6-26,97.2,78.1,59.4,65.6,58.8,56.5,94,57,29,29.95,29.84,4,1,6,0.00
2013-6-27,103.1,82.0,62.6,66.2,59.5,56.1,85,52,22,29.99,29.88,3,1,7,0.00
2013-6-28,96.1,88.6,78.3,60.5,60.4,60.2,54,41,31,29.93,29.88,1,0,2,0.00
2013-6-29,110.5,98.1,68.2,99.9,66.6,43.1,99,44,12,29.88,29.65,3,1,4,0.01
2013-6-30,111.0,92.3,75.6,99.9,60.1,34.7,99,38,10,29.72,29.61,3,1,5,0.00
2013-7-1,101.3,82.7,64.9,64.5,58.5,52.3,84,46,21,29.84,29.71,2,0,4,0.00
2013-7-2,101.7,81.0,64.2,63.7,58.5,45.0,84,51,15,29.91,29.82,3,1,5,0.02
2013-7-3,97.7,75.7,60.4,64.1,59.5,56.1,93,62,28,29.90,29.71,3,1,4,0.01
2013-7-4,94.1,75.4,57.7,64.5,58.2,47.8,98,61,25,29.81,29.66,3,1,5,54.64
2013-7-5,94.3,72.8,60.1,64.2,59.8,56.3,96,67,34,29.82,29.67,3,0,4,0.00
2013-7-6,93.9,71.6,58.1,64.4,59.9,56.6,98,72,36,29.81,29.66,3,1,5,0.00
2013-7-7,98.8,74.1,54.0,64.1,57.5,53.1,99,64,24,29.85,29.69,3,1,4,0.00
2013-7-8,106.5,78.3,55.8,99.9,56.4,37.4,99,59,11,29.90,29.77,4,1,5,54.64
2013-7-9,109.0,82.3,63.7,99.9,56.8,44.8,99,48,18,29.91,29.85,4,1,5,0.00
2013-7-10,88.0,74.6,65.7,59.6,56.4,54.0,69,55,36,29.94,29.84,2,0,4,0.00
2013-7-11,90.7,76.9,65.1,64.6,60.7,58.3,85,60,40,29.92,29.82,3,0,5,54.64
2013-7-12,95.4,76.1,62.8,68.7,60.0,53.1,99,62,29,29.90,29.78,3,1,5,0.01
2013-7-13,97.9,74.9,55.4,62.8,56.5,49.2,98,61,20,29.96,29.77,3,1,5,0.00
2013-7-14,100.0,77.5,56.5,64.8,56.0,51.0,96,56,20,29.92,29.72,3,1,5,0.03
2013-7-15,98.4,74.1,57.7,63.3,54.7,48.4,92,58,19,29.86,29.72,4,0,6,0.00
2013-7-16,97.3,73.7,52.0,61.3,46.0,24.5,96,51,10,29.96,29.82,4,1,8,0.00
2013-7-17,99.1,76.2,55.2,98.6,49.9,28.9,99,51,10,30.01,29.87,4,1,6,0.00
2013-7-18,99.9,76.2,54.7,57.4,50.0,32.0,85,48,10,29.97,29.78,4,1,5,54.70
2013-7-19,97.7,74.3,55.4,59.3,54.3,48.1,92,56,20,29.88,29.74,3,0,5,0.00
2013-7-20,94.3,72.1,55.8,60.8,57.0,53.0,94,64,32,29.87,29.70,3,1,5,0.00
2013-7-21,91.0,73.2,62.4,64.2,60.3,57.4,86,66,39,29.85,29.76,3,1,98,54.70
2013-7-22,69.8,69.8,69.8,60.4,60.4,60.4,72,72,72,29.85,29.85,1,1,2,0.00
2013-7-23,69.8,69.8,69.8,60.4,60.4,60.4,72,72,72,29.85,29.85,1,1,2,0.00
2013-7-24,69.8,69.8,69.8,60.4,60.4,60.4,72,72,72,29.85,29.85,1,1,2,0.00
2013-7-25,69.8,69.8,69.8,60.4,60.4,60.4,72,72,72,29.85,29.85,1,1,2,0.00
2013-7-26,69.8,69.8,69.8,60.4,60.4,60.4,72,72,72,29.85,29.85,1,1,2,0.00
2013-7-27,95.0,83.5,59.0,61.7,59.7,56.4,91,49,30,29.99,29.81,4,1,7,0.19
2013-7-28,94.5,64.4,57.6,60.5,56.3,55.3,96,77,31,29.91,29.81,2,0,4,0.00